[[{"header":{"parameterUnit":"m.s-1","parameterCategory":2,"la1":30.2991,"la2":30.254,"lo1":-89.0895,"lo2":-89.0444,"dy":0.0017,"dx":0.0017,"nx":28,"ny":28,"refTime":"2024-07-18T03:00:00:Z","depth":"0","parameterNumber":2,"parameterNumberName":"U-component_of_CURRENTS"},"data":[0,0,0,0,0,0,0,0,0,0,0,0,0,0,0,0,0,0,0,0,0,0,0,0,0,0,0,0,0,0,0,0,0,0,0,0,0,0,0,0,0,0,0,0,0,0,0,0,0,0,0,0,0,0,0,0,0,0,-0.2749,-0.2749,0,-0.2797,-0.2798,-0.2798,-0.2786,-0.2785,-0.2784,-0.2784,-0.2856,-0.2858,-0.2861,0,0,0,0,0,0,0,0,0,0,0,0,0,-0.2688,-0.2689,-0.2749,-0.2749,-0.275,-0.2797,-0.2798,-0.2798,-0.2787,-0.2785,-0.2784,-0.2783,-0.2855,-0.2858,-0.2862,0,0,0,0,0,0,0,0,0,0,0,0,0,-0.2724,-0.2689,-0.2749,-0.2749,-0.2749,-0.2797,-0.2798,-0.2799,-0.2787,-0.2785,-0.2784,-0.2782,-0.2854,-0.2858,-0.2862,-0.2919,0,0,-0.2875,-0.2877,0,0,0,0,0,0,0,0,-0.2721,-0.2726,-0.2748,-0.2749,-0.2749,-0.2783,-0.2802,-0.284,-0.2787,-0.2774,-0.2783,-0.2782,-0.2834,-0.284,-0.2853,-0.2922,-0.2926,-0.2876,-0.2878,-0.288,-0.2881,0,0,0,0,0,0,0,-0.2719,-0.2724,-0.2769,-0.2749,-0.275,-0.2761,-0.2764,-0.281,-0.2813,-0.2775,-0.2774,-0.2778,-0.2835,-0.2849,-0.2855,-0.2927,-0.2875,-0.2879,-0.2882,-0.2884,-0.301,-0.3011,0,0,0,0,0,0,-0.2711,-0.2722,-0.2767,-0.277,-0.273,-0.2763,-0.2766,-0.2775,-0.2812,-0.2816,-0.2779,-0.2777,-0.2843,-0.285,-0.2858,-0.2914,-0.288,-0.2884,-0.2887,-0.3009,-0.301,-0.3011,0,0,0,0,0,0,-0.271,-0.2715,-0.2765,-0.2746,-0.2753,-0.2765,-0.2775,-0.2776,-0.2789,-0.2815,-0.2819,-0.2789,-0.2842,-0.2852,-0.29,-0.2917,-0.2886,-0.289,-0.3009,-0.301,-0.3011,-0.3035,0,0,0,0,0,0,-0.2708,-0.2714,-0.2717,-0.2745,-0.2754,-0.2802,-0.2776,-0.2779,-0.2794,-0.2792,-0.2826,-0.2831,-0.2841,-0.2894,-0.2905,-0.2922,-0.2893,-0.3008,-0.3009,-0.301,-0.3034,-0.3037,-0.304,0,0,0,0,0,-0.2706,-0.2722,-0.2717,-0.2723,-0.2757,-0.2803,-0.281,-0.2813,-0.2796,-0.2816,-0.2831,-0.2829,-0.291,-0.2899,-0.2911,-0.293,-0.3007,-0.3009,-0.301,-0.3032,-0.3037,-0.304,0,0,0,0,0,0,-0.269,-0.2723,-0.2718,-0.274,-0.2771,-0.2801,-0.2814,-0.2819,-0.2847,-0.2838,-0.2855,-0.2864,-0.2907,-0.292,-0.2907,-0.2968,-0.2953,-0.2957,-0.2965,-0.297,-0.2973,-0.2958,-0.2897,0,0,0,0,0,-0.2689,-0.2709,-0.2743,-0.2757,-0.2773,-0.2794,-0.281,-0.2817,-0.2844,-0.2853,-0.2874,-0.2895,-0.2927,-0.2948,-0.2977,-0.3027,-0.2977,-0.3041,-0.3044,-0.3047,-0.3042,-0.2989,-0.2986,-0.3017,-0.3017,-0.3017,0,0,-0.2678,-0.2704,-0.2709,-0.2755,-0.2773,-0.282,-0.28,-0.283,-0.2862,-0.286,-0.2904,-0.2914,-0.2943,-0.2987,-0.3007,-0.2999,-0.3007,-0.3049,-0.3051,-0.3045,-0.299,-0.2987,-0.2984,-0.3018,-0.3018,-0.3018,0,0,-0.2694,-0.2699,-0.2731,-0.2768,-0.2808,-0.2829,-0.2841,-0.2877,-0.2884,-0.2937,-0.2929,-0.2942,-0.3011,-0.3015,-0.3032,-0.3075,-0.3026,-0.3088,-0.31,-0.3049,-0.3045,-0.3041,-0.2943,-0.2931,-0.3091,-0.3091,-0.3091,0,-0.2675,-0.2729,-0.2747,-0.2802,-0.2829,-0.2838,-0.2885,-0.2911,-0.2954,-0.2957,-0.2954,-0.2997,-0.302,-0.305,-0.3064,-0.3081,-0.3028,-0.3084,-0.3051,-0.3046,-0.3042,-0.2942,-0.2928,-0.3092,-0.3092,-0.3092,-0.3092,0,-0.2729,-0.2774,-0.2798,-0.2868,-0.2903,-0.2941,-0.2979,-0.2999,-0.3004,-0.3018,-0.3036,-0.3049,-0.3063,-0.3077,-0.3096,-0.3084,-0.3045,-0.3057,-0.3035,-0.304,-0.2935,-0.2919,-0.3094,-0.3094,-0.3093,-0.3093,0,0,-0.2655,-0.2806,-0.2809,-0.2854,-0.2936,-0.2962,-0.3018,-0.3057,-0.3061,-0.3087,-0.3085,-0.313,-0.3099,-0.3113,-0.3112,-0.308,-0.3001,-0.3063,-0.306,-0.2955,-0.2846,-0.2674,-0.264,-0.3009,-0.3007,-0.3006,-0.2772,0,-0.2678,-0.2798,-0.2865,-0.2947,-0.3,-0.3037,-0.3082,-0.3112,-0.3124,-0.3125,-0.3111,-0.3116,-0.3125,-0.3113,-0.3086,-0.305,-0.2968,-0.3061,-0.2866,-0.2859,-0.2698,-0.2619,-0.2502,-0.2272,-0.2756,-0.2754,-0.2752,0,-0.2683,-0.2771,-0.2873,-0.298,-0.3,-0.3047,-0.3077,-0.3121,-0.3135,-0.3138,-0.3129,-0.3115,-0.3096,-0.308,-0.2976,-0.3038,-0.2929,-0.2874,-0.2864,-0.2684,-0.2659,-0.2353,-0.2225,-0.2245,-0.2728,-0.273,-0.2731,0,-0.2595,-0.275,-0.2827,-0.287,-0.3003,-0.3026,-0.3071,-0.3106,-0.3121,-0.3125,-0.3117,-0.3095,-0.3059,-0.2976,-0.2868,-0.2922,-0.2703,-0.276,-0.2474,-0.246,-0.2309,-0.2283,-0.2167,-0.2606,-0.2606,-0.2607,-0.2608,0,-0.2572,-0.2618,-0.2793,-0.2831,-0.2885,-0.2979,-0.3003,-0.3043,-0.3075,-0.3066,-0.31,-0.3058,-0.3031,-0.2916,-0.2828,-0.258,-0.2653,-0.2432,-0.2379,-0.231,-0.2288,-0.226,-0.2329,-0.2598,-0.26,-0.2602,-0.2603,0,-0.2443,-0.2573,-0.2657,-0.281,-0.2851,-0.287,-0.297,-0.2976,-0.3028,-0.3011,-0.3007,-0.3008,-0.2856,-0.2755,-0.2584,-0.2485,-0.2238,-0.2164,-0.2055,-0.1992,-0.1781,-0.1856,-0.166,-0.1613,-0.184,-0.1834,-0.1829,0,-0.2385,-0.2426,-0.2602,-0.2645,-0.2713,-0.2778,-0.2813,-0.2919,-0.2939,-0.2955,-0.2932,-0.2803,-0.2642,-0.233,-0.2145,-0.1876,-0.1943,-0.1613,-0.1695,-0.1701,-0.1749,-0.1841,-0.1827,-0.1496,-0.1489,-0.1483,-0.1479,0,-0.2241,-0.2308,-0.2383,-0.2503,-0.2565,-0.2638,-0.2711,-0.2727,-0.2817,-0.2782,-0.2681,-0.2541,-0.2254,-0.1921,-0.1599,-0.1469,-0.1612,-0.1479,-0.1532,-0.1481,-0.1529,-0.1481,-0.171,-0.1426,-0.1431,-0.1435,-0.1438,-0.144,-0.2086,-0.2103,-0.2217,-0.2309,-0.2397,-0.2456,-0.2427,-0.2488,-0.2455,-0.2326,-0.2359,-0.2029,-0.1739,-0.1274,-0.1195,-0.101,-0.1149,-0.0974,-0.106,-0.1149,-0.1117,-0.1188,-0.083,-0.0832,-0.0833,-0.0835,-0.0836,0,-0.187,-0.1928,-0.2013,-0.2121,-0.2152,-0.2267,-0.2309,-0.2216,-0.2073,-0.1942,-0.1753,-0.1288,-0.1004,-0.0851,-0.0663,-0.0633,-0.0707,-0.0651,-0.0817,-0.082,-0.0891,-0.0892,-0.0476,-0.0476,-0.0476,-0.0476,-0.0476,-0.0476,-0.1751,-0.175,-0.1828,-0.1839,-0.1908,-0.1842,-0.181,-0.1684,-0.1542,-0.1145,-0.0819,-0.0608,-0.048,-0.0555,-0.0571,-0.0565,-0.0656,-0.0579,-0.0675,-0.0818,-0.086,-0.09,-0.0917,-0.0512,-0.0512,-0.0565,-0.0566,-0.0566]},{"header":{"parameterUnit":"m.s-1","parameterCategory":2,"la1":30.2991,"la2":30.254,"lo1":-89.0895,"lo2":-89.0444,"dy":0.0017,"dx":0.0017,"nx":28,"ny":28,"refTime":"2024-07-18T03:00:00:Z","depth":"0","parameterNumber":3,"parameterNumberName":"V-component_of_CURRENTS"},"data":[0,0,0,0,0,0,0,0,0,0,0,0,0,0,0,0,0,0,0,0,0,0,0,0,0,0,0,0,0,0,0,0,0,0,0,0,0,0,0,0,0,0,0,0,0,0,0,0,0,0,0,0,0,0,0,0,0,0,-0.1521,-0.1521,0,-0.1487,-0.1486,-0.1486,-0.1394,-0.1393,-0.1391,-0.1389,-0.1292,-0.1291,-0.129,0,0,0,0,0,0,0,0,0,0,0,0,0,-0.1441,-0.1443,-0.1521,-0.1521,-0.1521,-0.1487,-0.1486,-0.1486,-0.1394,-0.1392,-0.139,-0.1388,-0.1292,-0.1291,-0.129,0,0,0,0,0,0,0,0,0,0,0,0,0,-0.1445,-0.1444,-0.1522,-0.1474,-0.1469,-0.1487,-0.1486,-0.1485,-0.1395,-0.1392,-0.139,-0.1388,-0.1293,-0.1291,-0.129,-0.1331,0,0,-0.1285,-0.1285,0,0,0,0,0,0,0,0,-0.1445,-0.1448,-0.1481,-0.1477,-0.1472,-0.1445,-0.1422,-0.1432,-0.1396,-0.142,-0.1389,-0.1386,-0.1341,-0.1336,-0.1331,-0.1326,-0.1322,-0.1285,-0.1284,-0.1283,-0.1283,0,0,0,0,0,0,0,-0.1445,-0.1449,-0.1505,-0.1481,-0.1476,-0.1431,-0.1429,-0.1423,-0.1392,-0.1418,-0.1412,-0.1414,-0.1338,-0.1333,-0.1328,-0.1321,-0.1285,-0.1284,-0.1283,-0.1282,-0.1325,-0.1327,0,0,0,0,0,0,-0.1463,-0.1449,-0.1506,-0.1504,-0.1456,-0.1435,-0.1433,-0.1454,-0.1393,-0.1383,-0.1416,-0.141,-0.1337,-0.133,-0.1324,-0.135,-0.1284,-0.1282,-0.1281,-0.1323,-0.1326,-0.1328,0,0,0,0,0,0,-0.1461,-0.1469,-0.1507,-0.1476,-0.1478,-0.144,-0.1464,-0.1455,-0.1443,-0.1393,-0.138,-0.1413,-0.1335,-0.1327,-0.1328,-0.1345,-0.1281,-0.128,-0.1321,-0.1324,-0.1327,-0.1413,0,0,0,0,0,0,-0.146,-0.1469,-0.1487,-0.1479,-0.1481,-0.1522,-0.1466,-0.1456,-0.145,-0.1441,-0.1387,-0.1375,-0.1332,-0.1331,-0.1327,-0.1342,-0.1279,-0.1318,-0.1322,-0.1326,-0.1407,-0.1418,-0.1428,0,0,0,0,0,-0.1457,-0.1494,-0.1489,-0.1495,-0.151,-0.1524,-0.1521,-0.1481,-0.1452,-0.1459,-0.1427,-0.1376,-0.1351,-0.1332,-0.1326,-0.1342,-0.1316,-0.1321,-0.1325,-0.1403,-0.1416,-0.1427,0,0,0,0,0,0,-0.1466,-0.1489,-0.1482,-0.1524,-0.1526,-0.1509,-0.1515,-0.1494,-0.1476,-0.1463,-0.1408,-0.1397,-0.1401,-0.1374,-0.1354,-0.1369,-0.1324,-0.1328,-0.1385,-0.1397,-0.1407,-0.141,-0.1278,0,0,0,0,0,-0.1483,-0.1517,-0.1524,-0.1557,-0.1563,-0.1543,-0.1543,-0.1521,-0.1507,-0.1495,-0.1461,-0.1433,-0.1422,-0.141,-0.1394,-0.1411,-0.1343,-0.1418,-0.1428,-0.1437,-0.1438,-0.14,-0.1405,-0.1343,-0.1343,-0.1343,0,0,-0.1492,-0.1513,-0.1528,-0.1561,-0.1558,-0.1581,-0.1535,-0.1546,-0.1556,-0.1491,-0.1495,-0.1469,-0.1437,-0.1447,-0.1446,-0.1421,-0.1407,-0.1443,-0.145,-0.1446,-0.1405,-0.141,-0.1415,-0.1346,-0.1346,-0.1345,0,0,-0.1533,-0.1553,-0.1591,-0.1602,-0.1614,-0.161,-0.1619,-0.1612,-0.1596,-0.1611,-0.1564,-0.1555,-0.154,-0.1515,-0.1503,-0.1568,-0.1466,-0.1564,-0.1612,-0.1576,-0.158,-0.1583,-0.1443,-0.1433,-0.1566,-0.1567,-0.1567,0,-0.1537,-0.1595,-0.1601,-0.1637,-0.1651,-0.163,-0.1665,-0.166,-0.165,-0.165,-0.162,-0.1602,-0.1571,-0.1579,-0.1597,-0.1587,-0.1518,-0.1564,-0.1587,-0.1589,-0.159,-0.1447,-0.1435,-0.1571,-0.1571,-0.157,-0.157,0,-0.1604,-0.1644,-0.1668,-0.1712,-0.1729,-0.1757,-0.1757,-0.1764,-0.1748,-0.1738,-0.174,-0.1702,-0.1685,-0.168,-0.1656,-0.1662,-0.1588,-0.1603,-0.1549,-0.1601,-0.1447,-0.1432,-0.1578,-0.1576,-0.1575,-0.1574,0,0,-0.1622,-0.17,-0.1706,-0.174,-0.177,-0.1795,-0.1821,-0.1844,-0.1855,-0.1839,-0.1846,-0.1832,-0.18,-0.1785,-0.1749,-0.172,-0.165,-0.1673,-0.1669,-0.152,-0.1489,-0.1347,-0.1316,-0.1675,-0.1675,-0.1675,-0.1353,0,-0.1666,-0.1758,-0.1779,-0.185,-0.1894,-0.189,-0.1918,-0.193,-0.1922,-0.1924,-0.1885,-0.1878,-0.1843,-0.1829,-0.1801,-0.1715,-0.1627,-0.173,-0.1473,-0.1463,-0.1322,-0.1302,-0.1216,-0.0918,-0.1339,-0.1336,-0.1334,0,-0.1716,-0.1776,-0.1863,-0.1928,-0.1944,-0.198,-0.2017,-0.2036,-0.2032,-0.2018,-0.2002,-0.1962,-0.1923,-0.1882,-0.1724,-0.1794,-0.1638,-0.1545,-0.1531,-0.1364,-0.1298,-0.0948,-0.0875,-0.0703,-0.1311,-0.1313,-0.1315,0,-0.1739,-0.1826,-0.1904,-0.1928,-0.1999,-0.2028,-0.2055,-0.2068,-0.2077,-0.2072,-0.2052,-0.2015,-0.1953,-0.184,-0.1644,-0.1686,-0.1424,-0.1455,-0.1147,-0.113,-0.0987,-0.0959,-0.071,-0.1291,-0.1292,-0.1292,-0.1293,0,-0.1782,-0.1834,-0.1924,-0.1968,-0.2044,-0.2069,-0.2124,-0.2137,-0.2135,-0.2113,-0.2098,-0.2032,-0.1945,-0.1786,-0.1634,-0.1324,-0.1398,-0.1122,-0.1052,-0.1007,-0.0987,-0.0776,-0.0752,-0.128,-0.1283,-0.1285,-0.1287,0,-0.1789,-0.1852,-0.1942,-0.2035,-0.2063,-0.2116,-0.2167,-0.2185,-0.2177,-0.2137,-0.2126,-0.203,-0.1814,-0.1653,-0.1409,-0.1254,-0.0876,-0.0865,-0.0763,-0.0688,-0.029,-0.0276,0.0032,0.0155,-0.0493,-0.0487,-0.0483,0,-0.1794,-0.1851,-0.1986,-0.2037,-0.2082,-0.2153,-0.2184,-0.2209,-0.2198,-0.2094,-0.2051,-0.1856,-0.1659,-0.1252,-0.0985,-0.0644,-0.0577,-0.0339,-0.0427,-0.0218,-0.0153,-0.0178,-0.0102,-0.0227,-0.022,-0.0215,-0.0211,0,-0.1789,-0.185,-0.193,-0.205,-0.2113,-0.217,-0.2199,-0.2179,-0.214,-0.2046,-0.1842,-0.168,-0.1295,-0.0897,-0.0492,-0.0315,-0.0222,-0.0221,-0.0064,0.0042,0.0086,0.0222,-0.0422,-0.0167,-0.0171,-0.0175,-0.0177,-0.0179,-0.1751,-0.1822,-0.1934,-0.204,-0.2107,-0.2117,-0.2058,-0.203,-0.1923,-0.1665,-0.1612,-0.1248,-0.0804,-0.0237,-0.0054,0.037,0.0223,0.0464,0.0469,0.0431,0.0515,0.0025,0.0366,0.0365,0.0363,0.0362,0.0361,0,-0.167,-0.1782,-0.19,-0.2001,-0.2023,-0.2079,-0.2,-0.1855,-0.1606,-0.1404,-0.1148,-0.0546,-0.0054,0.0319,0.0866,0.105,0.1018,0.1089,0.1046,0.1093,0.0644,0.0618,0.1096,0.1096,0.1096,0.1095,0.1095,0.1095,-0.1628,-0.1728,-0.183,-0.1877,-0.1914,-0.1787,-0.1669,-0.1458,-0.1238,-0.075,-0.037,-0.0125,0.0435,0.1061,0.1537,0.1561,0.1679,0.1619,0.1686,0.1336,0.1275,0.1217,0.1202,0.1794,0.1795,0.2135,0.2139,0.2141]}],[{"header":{"parameterUnit":"m.s-1","parameterCategory":2,"la1":30.2991,"la2":30.254,"lo1":-89.0895,"lo2":-89.0444,"dy":0.0017,"dx":0.0017,"nx":28,"ny":28,"refTime":"2024-07-18T03:00:00:Z","depth":"2","parameterNumber":2,"parameterNumberName":"U-component_of_CURRENTS"},"data":[0,0,0,0,0,0,0,0,0,0,0,0,0,0,0,0,0,0,0,0,0,0,0,0,0,0,0,0,0,0,0,0,0,0,0,0,0,0,0,0,0,0,0,0,0,0,0,0,0,0,0,0,0,0,0,0,0,0,-0.1936,-0.1937,0,-0.2025,-0.2026,-0.2027,-0.2105,-0.2106,-0.2107,-0.2108,-0.2238,-0.2241,-0.2243,0,0,0,0,0,0,0,0,0,0,0,0,0,-0.187,-0.1871,-0.1936,-0.1937,-0.1938,-0.2025,-0.2026,-0.2027,-0.2105,-0.2106,-0.2107,-0.2108,-0.2237,-0.224,-0.2244,0,0,0,0,0,0,0,0,0,0,0,0,0,-0.1924,-0.1871,-0.1936,-0.1987,-0.1992,-0.2024,-0.2026,-0.2028,-0.2105,-0.2106,-0.2108,-0.2109,-0.2236,-0.224,-0.2244,-0.2245,0,0,-0.2257,-0.2258,0,0,0,0,0,0,0,0,-0.192,-0.1926,-0.1978,-0.1983,-0.1989,-0.2054,-0.205,-0.2102,-0.2105,-0.2063,-0.2108,-0.2109,-0.2179,-0.2188,-0.2203,-0.2252,-0.2257,-0.2257,-0.2259,-0.2261,-0.2262,0,0,0,0,0,0,0,-0.1917,-0.1923,-0.1973,-0.1979,-0.1986,-0.2017,-0.2026,-0.2061,-0.2115,-0.2067,-0.2073,-0.208,-0.2182,-0.2199,-0.2207,-0.2259,-0.2257,-0.226,-0.2263,-0.2265,-0.2272,-0.2269,0,0,0,0,0,0,-0.19,-0.1919,-0.197,-0.1975,-0.1956,-0.2017,-0.2027,-0.2033,-0.2114,-0.2127,-0.2079,-0.2084,-0.2191,-0.2202,-0.2211,-0.2216,-0.2261,-0.2265,-0.2267,-0.2274,-0.2271,-0.2269,0,0,0,0,0,0,-0.1898,-0.1903,-0.1966,-0.1948,-0.1958,-0.2016,-0.2023,-0.2034,-0.2076,-0.2122,-0.2137,-0.2112,-0.2192,-0.2206,-0.227,-0.2222,-0.2267,-0.2271,-0.2277,-0.2273,-0.227,-0.2226,0,0,0,0,0,0,-0.1896,-0.1902,-0.1884,-0.1947,-0.1959,-0.1987,-0.2022,-0.2035,-0.2076,-0.2084,-0.2155,-0.2167,-0.2194,-0.2264,-0.2274,-0.2228,-0.2274,-0.2279,-0.2275,-0.2271,-0.2231,-0.2222,-0.2214,0,0,0,0,0,-0.1893,-0.1893,-0.1883,-0.1888,-0.1938,-0.1986,-0.1995,-0.2041,-0.2077,-0.2086,-0.2151,-0.2166,-0.2241,-0.2268,-0.228,-0.2234,-0.2281,-0.2276,-0.2271,-0.2234,-0.2224,-0.2215,0,0,0,0,0,0,-0.186,-0.1902,-0.1893,-0.1903,-0.193,-0.1999,-0.2022,-0.2051,-0.2109,-0.2133,-0.2182,-0.2198,-0.2211,-0.2236,-0.2264,-0.2214,-0.2245,-0.2242,-0.2212,-0.2202,-0.2194,-0.2216,-0.2277,0,0,0,0,0,-0.1836,-0.1847,-0.1883,-0.1887,-0.191,-0.1963,-0.1986,-0.2021,-0.2084,-0.2113,-0.2158,-0.219,-0.2192,-0.2217,-0.2226,-0.2242,-0.2256,-0.2201,-0.2193,-0.2186,-0.2206,-0.2208,-0.2204,-0.2252,-0.2252,-0.2252,0,0,-0.1808,-0.1846,-0.1839,-0.1879,-0.1918,-0.1938,-0.1984,-0.2037,-0.2046,-0.2117,-0.216,-0.2174,-0.2188,-0.2184,-0.2188,-0.2211,-0.2167,-0.2179,-0.2174,-0.2199,-0.2203,-0.2199,-0.2195,-0.2248,-0.2249,-0.225,0,0,-0.1797,-0.1815,-0.1821,-0.1844,-0.19,-0.1939,-0.1955,-0.2024,-0.205,-0.2079,-0.2111,-0.2123,-0.2144,-0.2146,-0.2144,-0.2102,-0.2118,-0.2072,-0.2068,-0.2069,-0.2066,-0.2064,-0.2035,-0.2031,-0.2077,-0.2077,-0.2077,0,-0.177,-0.1781,-0.1827,-0.1848,-0.1876,-0.194,-0.196,-0.1981,-0.2052,-0.2078,-0.2082,-0.2104,-0.2115,-0.2111,-0.2083,-0.2084,-0.2088,-0.2111,-0.2063,-0.2061,-0.206,-0.2031,-0.2028,-0.2074,-0.2074,-0.2075,-0.2075,0,-0.1752,-0.1761,-0.1788,-0.1825,-0.1855,-0.1897,-0.1935,-0.1971,-0.2008,-0.202,-0.2031,-0.2046,-0.2067,-0.2029,-0.2049,-0.2028,-0.2029,-0.2048,-0.2098,-0.2053,-0.2024,-0.2021,-0.207,-0.2071,-0.2072,-0.2073,0,0,-0.1721,-0.1764,-0.177,-0.1785,-0.1859,-0.1892,-0.1922,-0.1969,-0.1999,-0.2003,-0.2023,-0.1994,-0.2019,-0.2019,-0.2025,-0.202,-0.1985,-0.2036,-0.2037,-0.2026,-0.1972,-0.1861,-0.1847,-0.2008,-0.2008,-0.2008,-0.1941,0,-0.1707,-0.173,-0.1762,-0.1788,-0.1817,-0.1885,-0.1906,-0.1947,-0.1982,-0.2008,-0.2002,-0.2006,-0.2004,-0.2014,-0.2008,-0.2007,-0.1983,-0.2001,-0.2002,-0.2001,-0.1925,-0.1842,-0.1708,-0.1628,-0.1938,-0.1938,-0.1937,0,-0.1687,-0.1714,-0.173,-0.1796,-0.1818,-0.1837,-0.1931,-0.1949,-0.1992,-0.2018,-0.2036,-0.2036,-0.2033,-0.2024,-0.2007,-0.2027,-0.1996,-0.1977,-0.1975,-0.1897,-0.1886,-0.1729,-0.1612,-0.1933,-0.1933,-0.1934,-0.1934,0,-0.1661,-0.1707,-0.1728,-0.1741,-0.1805,-0.1843,-0.1892,-0.1956,-0.1976,-0.2029,-0.2056,-0.2055,-0.2038,-0.2036,-0.1982,-0.2012,-0.1937,-0.1976,-0.1835,-0.1827,-0.1725,-0.1707,-0.194,-0.194,-0.194,-0.194,-0.194,0,-0.1652,-0.1665,-0.1715,-0.1716,-0.1764,-0.1822,-0.1876,-0.1934,-0.198,-0.1992,-0.206,-0.2047,-0.204,-0.1993,-0.1978,-0.1875,-0.1931,-0.1817,-0.1799,-0.1696,-0.1677,-0.197,-0.1975,-0.1938,-0.1938,-0.1939,-0.1939,0,-0.161,-0.1635,-0.1652,-0.1713,-0.1746,-0.1772,-0.1856,-0.1875,-0.1963,-0.1986,-0.1998,-0.2009,-0.1954,-0.1921,-0.1859,-0.183,-0.1773,-0.1712,-0.1567,-0.1532,-0.167,-0.1673,-0.1586,-0.1582,-0.1578,-0.1575,-0.1572,0,-0.16,-0.1595,-0.1635,-0.1636,-0.1664,-0.1722,-0.1757,-0.185,-0.1865,-0.1945,-0.193,-0.1886,-0.1819,-0.1697,-0.1599,-0.1517,-0.161,-0.1365,-0.1395,-0.1641,-0.1633,-0.1642,-0.165,-0.123,-0.1225,-0.122,-0.1217,0,-0.1575,-0.1569,-0.1581,-0.1573,-0.1599,-0.1624,-0.1682,-0.1679,-0.1772,-0.179,-0.1762,-0.1715,-0.1602,-0.141,-0.1291,-0.1242,-0.1382,-0.1273,-0.1561,-0.1337,-0.1298,-0.1294,-0.1314,-0.1179,-0.1182,-0.1185,-0.1187,-0.1189,-0.1574,-0.156,-0.155,-0.1543,-0.1555,-0.1527,-0.1495,-0.15,-0.148,-0.1456,-0.1518,-0.1432,-0.1393,-0.1116,-0.1027,-0.0955,-0.107,-0.1062,-0.1079,-0.1099,-0.1066,-0.1023,-0.0844,-0.0845,-0.0847,-0.0848,-0.085,0,-0.1606,-0.1575,-0.1529,-0.151,-0.1457,-0.1489,-0.1452,-0.1343,-0.1242,-0.1225,-0.1178,-0.1042,-0.0902,-0.0881,-0.0702,-0.0671,-0.0699,-0.0655,-0.0712,-0.0748,-0.078,-0.0736,-0.0423,-0.0422,-0.0421,-0.0421,0,0,-0.1633,-0.1595,-0.1546,-0.1446,-0.1415,-0.1319,-0.1259,-0.1033,-0.0943,-0.0787,-0.0751,-0.0837,-0.0861,-0.0666,-0.0599,-0.0484,-0.0617,-0.0446,-0.0782,-0.0884,-0.0916,-0.0998,-0.0966,0,0,0,0,0]},{"header":{"parameterUnit":"m.s-1","parameterCategory":2,"la1":30.2991,"la2":30.254,"lo1":-89.0895,"lo2":-89.0444,"dy":0.0017,"dx":0.0017,"nx":28,"ny":28,"refTime":"2024-07-18T03:00:00:Z","depth":"2","parameterNumber":3,"parameterNumberName":"V-component_of_CURRENTS"},"data":[0,0,0,0,0,0,0,0,0,0,0,0,0,0,0,0,0,0,0,0,0,0,0,0,0,0,0,0,0,0,0,0,0,0,0,0,0,0,0,0,0,0,0,0,0,0,0,0,0,0,0,0,0,0,0,0,0,0,-0.0237,-0.0236,0,-0.0152,-0.0151,-0.015,-0.0069,-0.0068,-0.0067,-0.0066,0.0182,0.0187,0.0193,0,0,0,0,0,0,0,0,0,0,0,0,0,-0.0298,-0.0298,-0.0237,-0.0236,-0.0235,-0.0152,-0.0151,-0.015,-0.007,-0.0068,-0.0067,-0.0065,0.018,0.0187,0.0193,0,0,0,0,0,0,0,0,0,0,0,0,0,-0.025,-0.0298,-0.0237,-0.0183,-0.0177,-0.0152,-0.0151,-0.015,-0.007,-0.0068,-0.0066,-0.0065,0.0178,0.0186,0.0194,0.0209,0,0,0.0219,0.0223,0,0,0,0,0,0,0,0,-0.0253,-0.0248,-0.0192,-0.0187,-0.018,-0.0118,-0.0082,-0.0021,-0.007,-0.0113,-0.0066,-0.0064,0.0097,0.0112,0.0119,0.0221,0.0231,0.022,0.0225,0.0229,0.0231,0,0,0,0,0,0,0,-0.0257,-0.0251,-0.0205,-0.0191,-0.0184,-0.0152,-0.0144,-0.0071,-0.0017,-0.0109,-0.0102,-0.009,0.0101,0.011,0.0126,0.0235,0.022,0.0227,0.0232,0.0235,0.0398,0.0397,0,0,0,0,0,0,-0.0267,-0.0255,-0.0208,-0.0202,-0.0211,-0.0153,-0.0143,-0.0141,-0.0021,-0.0002,-0.0092,-0.0087,0.0095,0.0116,0.0135,0.0186,0.0229,0.0236,0.0241,0.0398,0.0397,0.0397,0,0,0,0,0,0,-0.0269,-0.0264,-0.0211,-0.0224,-0.0215,-0.0153,-0.0152,-0.014,-0.0113,-0.001,0.0012,-0.0074,0.0098,0.0124,0.0229,0.0196,0.024,0.0247,0.0399,0.0398,0.0397,0.0272,0,0,0,0,0,0,-0.0271,-0.0266,-0.0271,-0.0226,-0.0215,-0.0186,-0.0153,-0.014,-0.0109,-0.0101,0.0013,0.0036,0.0101,0.0216,0.0237,0.0208,0.0254,0.04,0.0398,0.0397,0.0277,0.0267,0.0258,0,0,0,0,0,-0.0274,-0.028,-0.0273,-0.0266,-0.0224,-0.0185,-0.0177,-0.0128,-0.011,-0.0098,-0.001,0.0033,0.0222,0.0224,0.0248,0.022,0.04,0.0399,0.0397,0.0281,0.0269,0.0258,0,0,0,0,0,0,-0.0297,-0.0271,-0.0262,-0.0257,-0.0222,-0.0171,-0.0158,-0.0129,-0.0059,-0.0045,0.0051,0.0081,0.0143,0.0211,0.021,0.0262,0.0307,0.0311,0.021,0.0199,0.019,0.0188,0.0261,0,0,0,0,0,-0.0312,-0.0316,-0.0276,-0.0272,-0.0258,-0.0213,-0.0193,-0.0161,-0.0094,-0.0063,0.0016,0.0095,0.0148,0.0203,0.0262,0.0319,0.0392,0.0309,0.0299,0.0291,0.0305,0.0387,0.0386,0.0392,0.0392,0.0392,0,0,-0.032,-0.0306,-0.0307,-0.0279,-0.0252,-0.0245,-0.0196,-0.0166,-0.0156,-0.0044,0.0007,0.0068,0.0154,0.0199,0.0232,0.0262,0.0326,0.0289,0.0281,0.0301,0.0385,0.0385,0.0385,0.0391,0.0391,0.0391,0,0,-0.0336,-0.0327,-0.0335,-0.032,-0.0286,-0.026,-0.0253,-0.0199,-0.0168,-0.0113,-0.0051,0.0012,0.0108,0.0159,0.0196,0.018,0.0263,0.0179,0.0148,0.0225,0.0226,0.0227,0.0307,0.0317,0.0186,0.0186,0.0186,0,-0.0344,-0.0357,-0.0327,-0.0334,-0.0329,-0.0273,-0.0279,-0.0248,-0.0164,-0.0132,-0.0106,0.0016,0.0083,0.0138,0.0121,0.0157,0.0222,0.0178,0.0213,0.0216,0.0219,0.0302,0.0314,0.018,0.018,0.0181,0.0182,0,-0.0369,-0.0383,-0.0384,-0.0387,-0.0374,-0.0368,-0.0328,-0.0296,-0.0259,-0.022,-0.0153,-0.0062,0.0021,0.0021,0.0069,0.0111,0.0154,0.0178,0.0237,0.0211,0.03,0.0315,0.0171,0.0173,0.0175,0.0176,0,0,-0.0379,-0.04,-0.0403,-0.0423,-0.0406,-0.0397,-0.0381,-0.0343,-0.0317,-0.0253,-0.0207,-0.0145,-0.0086,-0.004,0.002,0.0083,0.0144,0.0136,0.0143,0.021,0.0326,0.0282,0.0295,0.0175,0.0177,0.0178,0.0373,0,-0.0406,-0.0448,-0.0445,-0.048,-0.0498,-0.046,-0.0451,-0.0409,-0.0351,-0.0287,-0.0206,-0.0145,-0.0113,-0.0073,-0.0009,0.0128,0.018,0.009,0.0349,0.0357,0.0316,0.0309,0.0279,0.0443,0.0388,0.0391,0.0392,0,-0.0434,-0.0463,-0.051,-0.0537,-0.0538,-0.0549,-0.0514,-0.0496,-0.0401,-0.0347,-0.0265,-0.0188,-0.0075,-0.0062,0.0156,0.0102,0.0194,0.0283,0.0293,0.0313,0.0341,0.0465,0.0474,0.0419,0.0417,0.0415,0.0413,0,-0.0467,-0.0508,-0.0553,-0.0566,-0.0581,-0.0584,-0.0581,-0.0513,-0.0488,-0.0375,-0.0305,-0.0182,-0.007,0.0051,0.0232,0.0206,0.0472,0.0466,0.0506,0.0505,0.0563,0.0562,0.0579,0.0579,0.0579,0.0578,0.0578,0,-0.0506,-0.0542,-0.0576,-0.0606,-0.0646,-0.0634,-0.0634,-0.0596,-0.0526,-0.0465,-0.0335,-0.0231,-0.0033,0.014,0.0253,0.0447,0.0499,0.051,0.0552,0.0514,0.0507,0.0555,0.0549,0.0586,0.0584,0.0583,0.0581,0,-0.0538,-0.0561,-0.0619,-0.0656,-0.0668,-0.0697,-0.0699,-0.0685,-0.0586,-0.0489,-0.0452,-0.023,0.0015,0.0201,0.0446,0.0503,0.0661,0.0696,0.0634,0.0661,0.0636,0.0621,0.0772,0.0772,0.0772,0.0772,0.0773,0,-0.056,-0.0594,-0.0665,-0.07,-0.0723,-0.0755,-0.077,-0.0731,-0.0707,-0.0479,-0.0434,-0.017,0.0032,0.0384,0.0528,0.0724,0.0715,0.0758,0.067,0.0629,0.0656,0.0642,0.0628,0.0715,0.0714,0.0714,0.0714,0,-0.0603,-0.0628,-0.0677,-0.0752,-0.0796,-0.0831,-0.0846,-0.0845,-0.0743,-0.0637,-0.0433,-0.0249,0.014,0.0372,0.0611,0.0694,0.0719,0.0751,0.0786,0.0631,0.058,0.0603,0.0592,0.071,0.0711,0.0711,0.0711,0.0711,-0.063,-0.0668,-0.0731,-0.0799,-0.0844,-0.0885,-0.0912,-0.0897,-0.086,-0.0672,-0.0486,-0.0167,0.0105,0.0452,0.0601,0.072,0.0722,0.0724,0.0724,0.0725,0.0644,0.0591,0.0712,0.0712,0.0712,0.0712,0.0713,0,-0.0659,-0.0697,-0.0768,-0.0847,-0.0906,-0.091,-0.0939,-0.0936,-0.089,-0.068,-0.0486,-0.0173,0.0124,0.0411,0.0603,0.0696,0.0689,0.0691,0.0678,0.0681,0.0683,0.0598,0.0655,0.0655,0.0655,0.0655,0,0,-0.0673,-0.0742,-0.0779,-0.0884,-0.0921,-0.0976,-0.0988,-0.0957,-0.0839,-0.0664,-0.0447,-0.0158,0.0201,0.0299,0.0456,0.0574,0.058,0.0561,0.0597,0.0564,0.0565,0.0695,0.0566,0,0,0,0,0]}],[{"header":{"parameterUnit":"m.s-1","parameterCategory":2,"la1":30.2991,"la2":30.254,"lo1":-89.0895,"lo2":-89.0444,"dy":0.0017,"dx":0.0017,"nx":28,"ny":28,"refTime":"2024-07-18T03:00:00:Z","depth":"4","parameterNumber":2,"parameterNumberName":"U-component_of_CURRENTS"},"data":[0,0,0,0,0,0,0,0,0,0,0,0,0,0,0,0,0,0,0,0,0,0,0,0,0,0,0,0,0,0,0,0,0,0,0,0,0,0,0,0,0,0,0,0,0,0,0,0,0,0,0,0,0,0,0,0,0,0,-0.1189,-0.119,0,-0.1225,-0.1225,-0.1225,-0.1234,-0.1234,-0.1234,-0.1235,-0.1323,-0.1325,-0.1328,0,0,0,0,0,0,0,0,0,0,0,0,0,-0.1129,-0.1129,-0.1189,-0.119,-0.1191,-0.1225,-0.1225,-0.1225,-0.1234,-0.1234,-0.1234,-0.1235,-0.1323,-0.1325,-0.1328,0,0,0,0,0,0,0,0,0,0,0,0,0,-0.1155,-0.113,-0.1189,-0.1203,-0.1205,-0.1225,-0.1225,-0.1225,-0.1234,-0.1234,-0.1234,-0.1235,-0.1322,-0.1325,-0.1328,-0.1344,0,0,-0.1338,-0.134,0,0,0,0,0,0,0,0,-0.1153,-0.1156,-0.12,-0.1202,-0.1204,-0.1229,-0.1237,-0.1269,-0.1234,-0.1218,-0.1235,-0.1235,-0.13,-0.1305,-0.1304,-0.1348,-0.1351,-0.1339,-0.1341,-0.1342,-0.1343,0,0,0,0,0,0,0,-0.1151,-0.1155,-0.1199,-0.1201,-0.1203,-0.1207,-0.1211,-0.1242,-0.1255,-0.122,-0.1221,-0.1232,-0.13,-0.13,-0.1306,-0.1353,-0.1339,-0.1341,-0.1344,-0.1345,-0.142,-0.142,0,0,0,0,0,0,-0.1156,-0.1153,-0.1198,-0.12,-0.1184,-0.1209,-0.1212,-0.1217,-0.1253,-0.126,-0.1232,-0.1233,-0.1295,-0.1302,-0.1309,-0.1381,-0.1342,-0.1345,-0.1347,-0.142,-0.142,-0.142,0,0,0,0,0,0,-0.1154,-0.1159,-0.1196,-0.1181,-0.1187,-0.121,-0.1215,-0.1218,-0.1243,-0.1263,-0.1269,-0.1258,-0.1295,-0.1305,-0.1333,-0.1382,-0.1347,-0.135,-0.142,-0.142,-0.142,-0.1491,0,0,0,0,0,0,-0.1152,-0.1158,-0.1166,-0.1182,-0.1188,-0.1214,-0.1215,-0.1219,-0.125,-0.1251,-0.1287,-0.1293,-0.1296,-0.1328,-0.1336,-0.1386,-0.1352,-0.142,-0.142,-0.142,-0.1488,-0.1493,-0.1497,0,0,0,0,0,-0.1149,-0.1159,-0.1165,-0.1172,-0.1197,-0.1215,-0.1218,-0.1232,-0.1251,-0.1257,-0.1272,-0.1294,-0.1334,-0.133,-0.134,-0.1393,-0.142,-0.142,-0.142,-0.1486,-0.1492,-0.1497,0,0,0,0,0,0,-0.114,-0.1162,-0.1169,-0.1186,-0.1203,-0.1219,-0.1232,-0.125,-0.1267,-0.1277,-0.1295,-0.1302,-0.1346,-0.1347,-0.1342,-0.1407,-0.1381,-0.1383,-0.1428,-0.1434,-0.1438,-0.1433,-0.1355,0,0,0,0,0,-0.1141,-0.1154,-0.1174,-0.119,-0.12,-0.1223,-0.1237,-0.125,-0.1268,-0.1278,-0.1303,-0.1324,-0.135,-0.1373,-0.1386,-0.1429,-0.141,-0.1463,-0.1468,-0.1472,-0.147,-0.1468,-0.1473,-0.142,-0.142,-0.142,0,0,-0.1146,-0.1159,-0.1168,-0.1189,-0.1205,-0.1229,-0.1231,-0.1259,-0.129,-0.1287,-0.1334,-0.1346,-0.136,-0.1398,-0.142,-0.1412,-0.1476,-0.1472,-0.1476,-0.1471,-0.1469,-0.1474,-0.1479,-0.142,-0.142,-0.142,0,0,-0.1154,-0.117,-0.118,-0.1199,-0.1228,-0.1244,-0.1261,-0.1289,-0.131,-0.1348,-0.1355,-0.1384,-0.1428,-0.1442,-0.1458,-0.1494,-0.1496,-0.1511,-0.1545,-0.1544,-0.1549,-0.1553,-0.1536,-0.1538,-0.1519,-0.1519,-0.1519,0,-0.116,-0.1175,-0.1187,-0.1206,-0.1232,-0.1259,-0.1285,-0.1312,-0.1347,-0.1368,-0.1369,-0.1428,-0.1448,-0.1499,-0.1508,-0.1512,-0.1499,-0.1533,-0.1552,-0.1556,-0.1559,-0.1541,-0.1542,-0.1523,-0.1522,-0.1522,-0.1522,0,-0.1169,-0.1195,-0.1207,-0.1241,-0.1266,-0.1295,-0.1335,-0.1365,-0.1401,-0.1425,-0.1478,-0.149,-0.152,-0.1544,-0.1545,-0.1587,-0.1567,-0.1558,-0.1546,-0.1569,-0.1548,-0.1548,-0.1528,-0.1526,-0.1525,-0.1525,0,0,-0.1155,-0.1203,-0.1211,-0.1231,-0.1291,-0.1307,-0.1368,-0.1415,-0.1449,-0.1493,-0.1531,-0.1585,-0.159,-0.1604,-0.1617,-0.1626,-0.1644,-0.1608,-0.1606,-0.1603,-0.1632,-0.1505,-0.1492,-0.1644,-0.1644,-0.1645,-0.161,0,-0.1163,-0.1198,-0.1228,-0.1278,-0.13,-0.1351,-0.1399,-0.1448,-0.149,-0.1528,-0.1566,-0.1601,-0.1618,-0.1632,-0.165,-0.1642,-0.1647,-0.1653,-0.1599,-0.1597,-0.1491,-0.1489,-0.1646,-0.161,-0.161,-0.161,-0.161,0,-0.1157,-0.1184,-0.123,-0.1288,-0.1303,-0.1342,-0.1412,-0.1454,-0.152,-0.1551,-0.16,-0.1622,-0.1664,-0.1655,-0.1672,-0.1677,-0.1659,-0.1648,-0.1646,-0.15,-0.1469,-0.1579,-0.1609,-0.1609,-0.1609,-0.161,-0.161,0,-0.112,-0.1182,-0.1217,-0.1242,-0.1316,-0.1349,-0.1389,-0.146,-0.149,-0.1557,-0.1578,-0.1635,-0.1651,-0.1657,-0.1655,-0.1663,-0.1645,-0.1647,-0.1516,-0.1507,-0.1605,-0.1601,-0.164,-0.164,-0.1641,-0.1641,-0.1641,0,-0.1104,-0.1133,-0.1202,-0.1223,-0.1258,-0.1322,-0.1363,-0.1412,-0.1475,-0.1497,-0.1579,-0.1593,-0.1651,-0.1656,-0.1651,-0.1576,-0.1642,-0.1509,-0.1486,-0.1634,-0.1633,-0.1605,-0.1601,-0.1639,-0.164,-0.164,-0.164,0,-0.1051,-0.1104,-0.1142,-0.122,-0.124,-0.1262,-0.1328,-0.1348,-0.1427,-0.1454,-0.1474,-0.1558,-0.1556,-0.1591,-0.1586,-0.1543,-0.1499,-0.1456,-0.1603,-0.159,-0.1364,-0.1364,-0.1296,-0.1292,-0.1287,-0.1284,-0.1281,0,-0.1024,-0.1041,-0.1116,-0.1128,-0.1164,-0.1204,-0.1223,-0.1307,-0.1326,-0.1414,-0.141,-0.1449,-0.1487,-0.1387,-0.1434,-0.1396,-0.1383,-0.1354,-0.1366,-0.1343,-0.1327,-0.1334,-0.134,-0.1275,-0.1273,-0.1272,-0.1271,0,-0.0967,-0.1003,-0.1029,-0.1051,-0.1076,-0.1095,-0.1131,-0.1136,-0.1223,-0.1307,-0.1306,-0.1306,-0.1294,-0.1297,-0.1272,-0.1253,-0.1371,-0.131,-0.1319,-0.1331,-0.1315,-0.1306,-0.1316,-0.1257,-0.1259,-0.126,-0.1261,0,-0.0918,-0.0912,-0.0943,-0.0949,-0.0978,-0.0971,-0.1009,-0.1024,-0.1054,-0.1165,-0.1155,-0.1208,-0.1275,-0.1219,-0.12,-0.1164,-0.1145,-0.1115,-0.1134,-0.115,-0.1117,-0.1077,-0.0912,0,0,0,0,0,-0.086,-0.0832,-0.0832,-0.0831,-0.0859,-0.0869,-0.0934,-0.0982,-0.1071,-0.1032,-0.1092,-0.1079,-0.1055,-0.1087,-0.1015,-0.1115,-0.1142,-0.1025,-0.1116,-0.1177,-0.1194,-0.1168,0,0,0,0,0,0,-0.0816,-0.081,-0.0793,-0.0727,-0.0705,-0.0718,-0.0758,-0.0826,-0.0817,-0.0921,-0.0916,-0.0989,-0.0984,-0.1066,-0.0983,-0.0987,-0.1017,-0.1059,-0.1055,-0.1168,-0.1183,-0.1196,-0.1176,0,0,0,0,0]},{"header":{"parameterUnit":"m.s-1","parameterCategory":2,"la1":30.2991,"la2":30.254,"lo1":-89.0895,"lo2":-89.0444,"dy":0.0017,"dx":0.0017,"nx":28,"ny":28,"refTime":"2024-07-18T03:00:00:Z","depth":"4","parameterNumber":3,"parameterNumberName":"V-component_of_CURRENTS"},"data":[0,0,0,0,0,0,0,0,0,0,0,0,0,0,0,0,0,0,0,0,0,0,0,0,0,0,0,0,0,0,0,0,0,0,0,0,0,0,0,0,0,0,0,0,0,0,0,0,0,0,0,0,0,0,0,0,0,0,-0.0237,-0.0237,0,-0.0224,-0.0224,-0.0224,-0.0211,-0.021,-0.021,-0.021,-0.0133,-0.0131,-0.013,0,0,0,0,0,0,0,0,0,0,0,0,0,-0.0247,-0.0247,-0.0238,-0.0237,-0.0237,-0.0224,-0.0224,-0.0224,-0.0211,-0.021,-0.021,-0.0209,-0.0134,-0.0132,-0.013,0,0,0,0,0,0,0,0,0,0,0,0,0,-0.0242,-0.0247,-0.0238,-0.0226,-0.0225,-0.0224,-0.0224,-0.0224,-0.0211,-0.021,-0.021,-0.0209,-0.0134,-0.0132,-0.0129,-0.0127,0,0,-0.0122,-0.0121,0,0,0,0,0,0,0,0,-0.0242,-0.0242,-0.0229,-0.0227,-0.0226,-0.0216,-0.0199,-0.0188,-0.0211,-0.0219,-0.021,-0.0209,-0.0154,-0.015,-0.0153,-0.0124,-0.012,-0.0122,-0.012,-0.0119,-0.0118,0,0,0,0,0,0,0,-0.0242,-0.0242,-0.0235,-0.0228,-0.0226,-0.022,-0.0219,-0.0197,-0.0191,-0.0219,-0.0217,-0.0211,-0.0153,-0.0156,-0.0151,-0.0119,-0.0122,-0.012,-0.0118,-0.0117,-0.0082,-0.0083,0,0,0,0,0,0,-0.0239,-0.0243,-0.0235,-0.0234,-0.0229,-0.022,-0.0219,-0.0222,-0.0193,-0.0187,-0.0212,-0.0211,-0.016,-0.0154,-0.0148,-0.0122,-0.0119,-0.0117,-0.0115,-0.0082,-0.0082,-0.0083,0,0,0,0,0,0,-0.024,-0.0239,-0.0236,-0.0235,-0.0234,-0.0221,-0.0224,-0.0222,-0.0222,-0.0188,-0.0182,-0.0213,-0.016,-0.0152,-0.0142,-0.0119,-0.0116,-0.0114,-0.0081,-0.0082,-0.0083,-0.0082,0,0,0,0,0,0,-0.024,-0.024,-0.0246,-0.0235,-0.0234,-0.0236,-0.0224,-0.0222,-0.0218,-0.0217,-0.0187,-0.0179,-0.0158,-0.0146,-0.0139,-0.0116,-0.0112,-0.008,-0.0081,-0.0082,-0.0082,-0.0083,-0.0084,0,0,0,0,0,-0.0241,-0.0249,-0.0247,-0.0246,-0.0242,-0.0236,-0.0236,-0.0225,-0.0219,-0.0223,-0.0211,-0.018,-0.0147,-0.0145,-0.0137,-0.0112,-0.008,-0.0081,-0.0082,-0.0081,-0.0083,-0.0084,0,0,0,0,0,0,-0.0252,-0.0248,-0.0245,-0.0251,-0.0244,-0.0233,-0.0235,-0.0228,-0.0223,-0.0223,-0.0192,-0.0184,-0.0163,-0.015,-0.0148,-0.0109,-0.0106,-0.0106,-0.0108,-0.0109,-0.011,-0.011,-0.011,0,0,0,0,0,-0.0259,-0.0267,-0.0256,-0.0261,-0.0259,-0.0249,-0.0247,-0.0241,-0.0232,-0.0229,-0.0208,-0.0188,-0.0164,-0.0148,-0.0131,-0.0112,-0.0083,-0.0093,-0.0094,-0.0095,-0.0092,-0.0032,-0.0027,-0.0087,-0.0087,-0.0087,0,0,-0.0264,-0.0262,-0.0266,-0.0264,-0.026,-0.0266,-0.0247,-0.0246,-0.0246,-0.022,-0.0216,-0.0192,-0.0163,-0.0143,-0.0131,-0.0126,-0.0066,-0.0096,-0.0097,-0.0094,-0.0033,-0.0026,-0.0021,-0.0088,-0.0088,-0.0087,0,0,-0.0276,-0.0277,-0.0289,-0.0289,-0.0285,-0.0279,-0.0278,-0.0269,-0.026,-0.0256,-0.0232,-0.0199,-0.0177,-0.0141,-0.0121,-0.0121,-0.0077,-0.0117,-0.0114,-0.0055,-0.0049,-0.0043,-0.0009,0.0,-0.0114,-0.0114,-0.0114,0,-0.0281,-0.0299,-0.0289,-0.0301,-0.0307,-0.0286,-0.03,-0.0288,-0.0276,-0.0265,-0.0257,-0.0202,-0.017,-0.0124,-0.0123,-0.0117,-0.0093,-0.0105,-0.0054,-0.0047,-0.0041,-0.0007,0.0003,-0.0114,-0.0114,-0.0114,-0.0114,0,-0.0304,-0.0321,-0.0327,-0.0338,-0.034,-0.035,-0.0333,-0.0327,-0.0311,-0.0291,-0.025,-0.0206,-0.017,-0.0146,-0.0132,-0.0072,-0.0073,-0.0062,-0.0043,-0.0034,-0.0,0.001,-0.0114,-0.0114,-0.0114,-0.0114,0,0,-0.0309,-0.0339,-0.0343,-0.0364,-0.0366,-0.0372,-0.0365,-0.0351,-0.0344,-0.0303,-0.0279,-0.0214,-0.018,-0.0157,-0.0117,-0.0058,0.0011,-0.0045,-0.0042,-0.0,0.0123,0.0102,0.0111,0.0033,0.0035,0.0036,0.0126,0,-0.0332,-0.0373,-0.0376,-0.0414,-0.0435,-0.0421,-0.0421,-0.0402,-0.0371,-0.0341,-0.0261,-0.0229,-0.0186,-0.0165,-0.0095,-0.0016,0.0039,-0.0016,0.0098,0.0101,0.0092,0.0124,0.0043,0.0134,0.0137,0.0138,0.014,0,-0.0355,-0.0384,-0.0429,-0.0466,-0.0473,-0.0489,-0.0486,-0.0482,-0.0423,-0.0397,-0.0329,-0.0275,-0.0177,-0.015,0.001,-0.003,0.0042,0.0106,0.0111,0.0101,0.01,0.0125,0.0159,0.0158,0.0156,0.0155,0.0154,0,-0.0376,-0.042,-0.0463,-0.0477,-0.0508,-0.0522,-0.0532,-0.0499,-0.0494,-0.0428,-0.0407,-0.029,-0.0227,-0.011,0.0029,0.0018,0.02,0.0201,0.025,0.0248,0.0241,0.0234,0.0309,0.0309,0.0308,0.0308,0.0308,0,-0.0401,-0.0437,-0.0482,-0.0509,-0.0559,-0.0563,-0.0591,-0.0576,-0.0544,-0.0528,-0.0439,-0.0381,-0.0211,-0.0088,0.0026,0.0176,0.0202,0.026,0.0279,0.0234,0.0225,0.0248,0.0239,0.0312,0.0311,0.031,0.031,0,-0.0417,-0.0446,-0.0504,-0.0555,-0.0574,-0.061,-0.0647,-0.0655,-0.0623,-0.0593,-0.0574,-0.0434,-0.0265,-0.0103,0.01,0.0169,0.031,0.035,0.0283,0.0295,0.0314,0.0305,0.041,0.041,0.041,0.041,0.041,0,-0.043,-0.0462,-0.0542,-0.0583,-0.0612,-0.0664,-0.0695,-0.0695,-0.0694,-0.0615,-0.0592,-0.0433,-0.0323,-0.0043,0.0115,0.0324,0.0346,0.039,0.0363,0.032,0.0329,0.0319,0.031,0.041,0.0411,0.0411,0.0411,0,-0.0457,-0.0488,-0.0538,-0.0619,-0.0673,-0.073,-0.0767,-0.0769,-0.0746,-0.0718,-0.0582,-0.0436,-0.0243,-0.003,0.0132,0.0278,0.0347,0.0392,0.0392,0.0367,0.0323,0.0329,0.032,0.0411,0.0411,0.0411,0.0411,0,-0.0477,-0.0518,-0.0585,-0.0651,-0.0721,-0.0768,-0.0789,-0.0769,-0.0761,-0.0665,-0.0613,-0.0406,-0.0277,-0.0053,0.01,0.0241,0.0264,0.0273,0.028,0.0281,0.0212,0.0135,0.0194,0,0,0,0,0,-0.0497,-0.0543,-0.061,-0.069,-0.0755,-0.0792,-0.0823,-0.0827,-0.0796,-0.0704,-0.0657,-0.0474,-0.0221,-0.0098,0.0044,0.0081,0.0267,0.0243,0.0275,0.0415,0.0414,0.0353,0,0,0,0,0,0,-0.0516,-0.058,-0.0612,-0.0701,-0.0753,-0.0824,-0.0841,-0.0822,-0.0759,-0.0698,-0.0542,-0.0473,-0.0208,-0.0288,0.0042,0.0084,0.0111,0.0368,0.037,0.0415,0.0415,0.0414,0.0351,0,0,0,0,0]}]]